W7KKE-3 Weather Reports


Display with metric or nautical units.
time (UTC)temp
F
wind
direction
speed
MPH
gust
MPH
rain 1hr
in
rain 24hr
in
rain mn
in
humidity
%
barometer
mb
20141128093742 57 151 7.0 13.0 0.15 0.69 0.20 95 1009.6
20141128092243 57 113 3.0 9.0 0.09 0.69 0.14 95 1009.6
20141128091742 57 180 5.0 14.0 0.09 0.69 0.11 95 1009.7
20141128091242 57 169 4.0 14.0 0.08 0.69 0.10 95 1009.8
20141128090742 57 138 8.0 14.0 0.08 0.69 0.09 95 1009.9
20141128090242 57 194 8.0 17.0 0.07 0.63 0.08 95 1010.0
20141128084742 56 144 8.0 14.0 0.06 0.63 0.06 95 1010.3
20141128084242 56 196 5.0 14.0 0.04 0.63 0.05 95 1010.3
20141128083742 56 177 9.0 14.0 0.04 0.63 0.04 95 1010.4
20141128083242 56 163 4.0 12.0 0.03 0.63 0.03 95 1010.4
20141128082743 56 183 6.0 12.0 0.03 0.63 0.03 95 1010.4
20141128081742 56 165 6.0 19.0 0.01 0.63 0.01 95 1010.7
20141128081242 56 162 7.0 19.0 0.00 0.63 0.01 95 1010.7
20141128080742 56 200 6.0 18.0 0.00 0.63 0.00 95 1010.7
20141128074742 56 130 6.0 20.0 0.00 0.63 0.63 94 1010.9
20141128074242 56 148 6.0 16.0 0.00 0.63 0.63 94 1011.0
20141128073742 56 172 6.0 16.0 0.00 0.63 0.63 94 1011.0
20141128073242 56 131 6.0 16.0 0.00 0.63 0.63 94 1011.1
20141128071242 57 214 7.0 18.0 0.00 0.63 0.63 94 1011.1
20141128070742 57 140 9.0 18.0 0.00 0.63 0.63 94 1011.0
20141128070242 57 166 8.0 19.0 0.00 0.63 0.63 93 1011.1
20141128065742 57 134 8.0 19.0 0.00 0.63 0.63 93 1011.1
20141128065242 57 106 8.0 19.0 0.00 0.63 0.63 93 1011.1
20141128064743 57 162 9.0 18.0 0.00 0.63 0.63 93 1011.1
20141128064242 57 141 5.0 18.0 0.00 0.63 0.63 93 1011.2
20141128063742 57 121 9.0 13.0 0.00 0.63 0.63 93 1011.3
20141128061242 56 142 9.0 28.0 0.00 0.63 0.63 93 1011.5
20141128060743 56 176 11.0 22.0 0.00 0.63 0.63 93 1011.7
20141128060242 57 169 11.0 22.0 0.00 0.63 0.63 93 1011.7
20141128055743 56 144 12.0 22.0 0.00 0.63 0.63 93 1011.8
20141128055244 57 187 6.0 16.0 0.00 0.63 0.63 93 1011.8
20141128054742 57 113 8.0 16.0 0.00 0.63 0.63 93 1011.7
20141128054242 57 159 10.0 12.0 0.00 0.63 0.63 93 1011.8
20141128053742 57 141 6.0 19.0 0.00 0.63 0.63 93 1011.8
20141128053242 57 148 8.0 19.0 0.00 0.63 0.63 93 1011.8
20141128052742 56 121 7.0 19.0 0.00 0.63 0.63 93 1011.8
20141128052242 57 131 8.0 18.0 0.00 0.63 0.63 93 1012.0
20141128051742 57 124 9.0 16.0 0.00 0.63 0.63 93 1012.0
20141128051242 57 140 6.0 16.0 0.00 0.63 0.63 93 1012.0
20141128050742 57 190 8.0 22.0 0.00 0.63 0.63 93 1012.0
20141128050242 57 141 1.0 22.0 0.00 0.63 0.63 93 1012.0
20141128045742 57 161 8.0 22.0 0.00 0.63 0.63 93 1012.0
20141128045242 57 147 11.0 19.0 0.00 0.63 0.63 93 1012.2
20141128044742 57 100 9.0 19.0 0.00 0.63 0.63 94 1012.2
20141128044242 57 134 12.0 21.0 0.00 0.63 0.63 94 1012.3
20141128043742 57 168 9.0 21.0 0.00 0.63 0.63 94 1012.4
20141128043242 57 141 4.0 21.0 0.00 0.63 0.63 94 1012.3
20141128042742 57 186 10.0 15.0 0.00 0.63 0.63 94 1012.5
20141128042245 57 144 9.0 13.0 0.00 0.63 0.63 94 1012.5
20141128041742 57 96 6.0 13.0 0.00 0.63 0.63 94 1012.7
20141128041242 57 133 6.0 13.0 0.00 0.63 0.63 94 1012.7
20141128040742 57 154 6.0 13.0 0.00 0.63 0.63 94 1012.6
20141128040242 57 168 5.0 17.0 0.00 0.63 0.63 94 1012.7
20141128035742 57 133 5.0 17.0 0.00 0.63 0.63 94 1012.7
20141128035243 57 134 7.0 17.0 0.00 0.63 0.63 94 1012.8
20141128034742 57 127 8.0 20.0 0.00 0.63 0.63 94 1012.9
20141128034242 56 133 8.0 20.0 0.00 0.63 0.63 94 1012.9
20141128033742 56 141 7.0 20.0 0.00 0.63 0.63 94 1013.0
20141128033242 56 114 6.0 19.0 0.00 0.63 0.63 94 1013.0
20141128032742 56 142 7.0 19.0 0.00 0.63 0.63 95 1013.0
20141128032242 56 114 7.0 19.0 0.00 0.63 0.63 95 1013.1
20141128031742 56 91 2.0 12.0 0.00 0.63 0.63 95 1013.1
20141128031242 56 120 6.0 12.0 0.00 0.63 0.63 95 1013.0
20141128030742 56 117 3.0 12.0 0.00 0.63 0.63 95 1013.0
20141128030242 56 135 3.0 12.0 0.00 0.63 0.63 95 1012.9
20141128025742 56 112 6.0 15.0 0.00 0.63 0.63 95 1012.9
20141128025244 56 183 5.0 15.0 0.00 0.63 0.63 95 1013.0
20141128024742 56 96 5.0 15.0 0.00 0.63 0.63 95 1013.1
20141128024242 56 127 10.0 18.0 0.00 0.63 0.63 95 1013.1
20141128023742 56 117 3.0 18.0 0.00 0.63 0.63 95 1013.0
20141128023242 56 137 8.0 18.0 0.00 0.63 0.63 95 1013.0
20141128022742 56 134 9.0 17.0 0.00 0.63 0.63 95 1013.1
20141128022243 56 147 5.0 15.0 0.00 0.63 0.63 95 1013.2
20141128021743 56 35 6.0 15.0 0.00 0.63 0.63 95 1013.2
20141128021242 56 200 4.0 23.0 0.00 0.63 0.63 95 1013.2
20141128020742 56 173 2.0 23.0 0.00 0.63 0.63 95 1013.2
20141128020242 56 165 6.0 23.0 0.01 0.63 0.63 95 1013.2
20141128015743 56 138 6.0 15.0 0.01 0.63 0.63 95 1013.3
20141128015243 56 134 5.0 14.0 0.01 0.63 0.63 95 1013.4
20141128014742 56 155 6.0 19.0 0.01 0.63 0.63 95 1013.5
20141128014243 56 161 6.0 19.0 0.01 0.63 0.63 95 1013.5
20141128013742 56 131 9.0 19.0 0.01 0.63 0.63 95 1013.6
20141128013242 56 170 10.0 16.0 0.01 0.63 0.63 95 1013.6
20141128012742 56 166 5.0 16.0 0.01 0.63 0.63 95 1013.5
20141128012243 56 211 6.0 16.0 0.01 0.63 0.63 95 1013.6
20141128011742 56 141 7.0 25.0 0.01 0.63 0.63 95 1013.7
20141128011242 56 158 10.0 25.0 0.01 0.63 0.63 95 1013.7
20141128010742 56 151 8.0 25.0 0.01 0.63 0.63 95 1013.8
20141128010242 56 158 8.0 16.0 0.00 0.62 0.63 95 1013.9
20141128005741 56 186 7.0 17.0 0.00 0.62 0.62 95 1013.8
20141128005241 56 180 8.0 17.0 0.00 0.62 0.62 95 1013.8
20141128004742 56 193 6.0 17.0 0.00 0.62 0.62 95 1013.8
20141128004241 57 159 9.0 20.0 0.00 0.62 0.62 95 1014.1
20141128003742 56 156 10.0 20.0 0.00 0.62 0.62 95 1014.0
20141128003241 56 130 13.0 20.0 0.00 0.62 0.62 95 1014.1
20141128002742 56 165 7.0 23.0 0.00 0.62 0.62 95 1013.9
20141128002242 57 130 8.0 23.0 0.00 0.62 0.62 95 1014.0
20141128001741 57 131 10.0 23.0 0.00 0.62 0.62 95 1014.0
20141128001242 57 130 11.0 22.0 0.00 0.62 0.62 95 1014.0
20141128000741 57 121 9.0 22.0 0.00 0.62 0.62 95 1013.9
20141128000241 57 155 10.0 20.0 0.00 0.62 0.62 95 1014.0
20141127235742 57 168 5.0 20.0 0.00 0.62 0.62 95 1014.0
20141127235241 57 172 9.0 17.0 0.00 0.62 0.62 95 1014.1
20141127234741 57 135 4.0 17.0 0.00 0.62 0.62 95 1014.1
20141127234241 57 169 9.0 15.0 0.00 0.62 0.62 95 1014.1
20141127233741 57 165 4.0 15.0 0.00 0.62 0.62 95 1014.0
20141127233241 57 130 5.0 13.0 0.01 0.62 0.62 95 1014.0
20141127232741 57 145 6.0 13.0 0.01 0.62 0.62 95 1013.9
20141127232241 57 70 5.0 14.0 0.01 0.62 0.62 95 1013.9
20141127231741 57 138 3.0 14.0 0.01 0.62 0.62 95 1013.9
20141127231241 57 145 6.0 14.0 0.01 0.62 0.62 95 1014.0
20141127230741 56 140 5.0 9.0 0.01 0.62 0.62 95 1013.9
20141127230241 57 113 5.0 14.0 0.01 0.62 0.62 95 1013.9
20141127225743 56 128 6.0 14.0 0.01 0.62 0.62 95 1014.0
20141127225244 56 130 6.0 14.0 0.01 0.62 0.62 95 1014.0
20141127224741 56 121 4.0 10.0 0.01 0.62 0.62 95 1014.0
20141127224241 56 75 2.0 10.0 0.01 0.62 0.62 95 1014.0
20141127223741 56 127 2.0 10.0 0.01 0.62 0.62 95 1014.0
20141127223241 56 88 4.0 10.0 0.01 0.62 0.62 95 1014.1
20141127222742 56 37 4.0 15.0 0.01 0.61 0.61 95 1014.1
20141127222241 56 99 2.0 15.0 0.01 0.61 0.61 95 1014.0
20141127221741 56 169 6.0 15.0 0.01 0.61 0.61 95 1014.2
20141127221242 56 79 7.0 9.0 0.01 0.61 0.61 95 1014.2
20141127220741 56 110 3.0 11.0 0.01 0.61 0.61 95 1014.3
20141127220241 56 72 3.0 11.0 0.02 0.61 0.61 95 1014.3
20141127215741 56 46 3.0 11.0 0.02 0.61 0.61 95 1014.4
20141127215241 56 159 3.0 11.0 0.03 0.61 0.61 95 1014.5
20141127214741 56 128 7.0 11.0 0.03 0.61 0.61 95 1014.5
20141127214241 56 148 6.0 9.0 0.03 0.61 0.61 95 1014.6
20141127213741 56 120 4.0 9.0 0.03 0.61 0.61 95 1014.7
20141127213241 56 112 1.0 14.0 0.02 0.61 0.61 95 1014.6
20141127212742 56 112 1.0 14.0 0.02 0.61 0.61 95 1014.7
20141127212241 56 190 3.0 14.0 0.02 0.60 0.60 95 1014.7
20141127211742 56 148 7.0 13.0 0.02 0.60 0.60 95 1014.8
20141127211241 56 149 2.0 13.0 0.02 0.60 0.60 95 1014.9
20141127210741 56 148 6.0 13.0 0.02 0.60 0.60 95 1015.0
20141127210241 56 163 6.0 11.0 0.01 0.60 0.60 95 1015.1
20141127205741 56 141 4.0 11.0 0.01 0.59 0.59 95 1015.1
20141127205242 56 140 6.0 15.0 0.00 0.59 0.59 95 1015.0
20141127204741 56 127 3.0 15.0 0.00 0.58 0.58 95 1015.0
20141127204241 56 140 5.0 15.0 0.00 0.58 0.58 95 1015.0
20141127203742 56 166 6.0 13.0 0.00 0.58 0.58 95 1015.1
20141127203241 56 100 0.0 13.0 0.00 0.58 0.58 95 1015.2
20141127202742 56 135 6.0 13.0 0.00 0.58 0.58 95 1015.2
20141127202245 56 140 2.0 12.0 0.00 0.58 0.58 95 1015.2
20141127200741 56 112 7.0 11.0 0.00 0.58 0.58 95 1015.2
20141127200241 56 176 5.0 20.0 0.01 0.58 0.58 95 1015.4
20141127195741 56 138 8.0 20.0 0.01 0.58 0.58 95 1015.4
20141127195244 56 142 2.0 20.0 0.01 0.58 0.58 95 1015.5
20141127194741 56 131 10.0 18.0 0.01 0.58 0.58 95 1015.6
20141127191741 55 128 3.0 12.0 0.02 0.58 0.58 95 1015.9
20141127191241 55 128 3.0 12.0 0.03 0.58 0.58 95 1015.9
20141127190741 55 137 7.0 12.0 0.03 0.58 0.58 95 1016.0
20141127190241 55 172 3.0 17.0 0.03 0.57 0.57 95 1016.1
20141127185741 55 145 7.0 17.0 0.03 0.57 0.57 95 1016.0
20141127185241 55 126 5.0 17.0 0.03 0.57 0.57 95 1016.0
20141127184741 55 147 7.0 16.0 0.03 0.57 0.57 95 1016.0
20141127182741 55 169 7.0 27.0 0.03 0.56 0.56 95 1016.0
20141127182243 55 131 3.0 27.0 0.04 0.56 0.56 95 1016.0
20141127181741 55 158 11.0 20.0 0.04 0.56 0.56 95 1016.0
20141127181241 55 156 4.0 13.0 0.04 0.55 0.55 95 1015.9
20141127173741 55 148 5.0 22.0 0.08 0.54 0.54 95 1016.0
20141127173241 55 173 3.0 23.0 0.09 0.53 0.53 95 1016.1
20141127172741 55 187 6.0 23.0 0.09 0.53 0.53 95 1016.2
20141127172241 55 156 7.0 23.0 0.09 0.53 0.53 95 1016.1
20141127171741 55 163 8.0 21.0 0.09 0.52 0.52 95 1016.1
20141127171241 55 169 14.0 27.0 0.09 0.52 0.52 95 1016.1
20141127170741 56 169 9.0 27.0 0.09 0.52 0.52 95 1016.0
20141127170241 56 128 12.0 27.0 0.10 0.51 0.51 95 1016.1
20141127165741 56 120 11.0 25.0 0.10 0.50 0.50 95 1016.3
20141127165242 55 114 9.0 21.0 0.10 0.49 0.49 95 1016.3
20141127164741 55 107 9.0 21.0 0.10 0.48 0.48 95 1016.2
20141127164241 55 135 6.0 21.0 0.10 0.47 0.47 95 1016.3
20141127163741 55 152 10.0 21.0 0.10 0.46 0.46 95 1016.4
20141127163241 55 131 11.0 21.0 0.08 0.45 0.45 95 1016.2
20141127162742 55 155 12.0 21.0 0.08 0.45 0.45 95 1016.2
20141127162241 55 135 9.0 25.0 0.09 0.44 0.44 94 1016.1
20141127161741 55 113 9.0 25.0 0.09 0.43 0.43 94 1016.2
20141127161241 55 116 11.0 25.0 0.10 0.43 0.43 94 1016.2
20141127160742 55 142 10.0 24.0 0.10 0.42 0.42 94 1016.2
20141127160241 56 169 12.0 24.0 0.10 0.41 0.41 94 1016.2
20141127155741 56 106 11.0 20.0 0.10 0.40 0.40 94 1016.2
20141127155244 56 159 8.0 20.0 0.09 0.39 0.39 94 1016.1
20141127154741 56 180 3.0 20.0 0.09 0.38 0.38 94 1015.8
20141127154241 56 135 2.0 20.0 0.08 0.37 0.37 94 1015.7
20141127153741 56 106 8.0 24.0 0.08 0.36 0.37 94 1015.9
20141127153241 56 106 5.0 24.0 0.09 0.36 0.36 94 1016.1
20141127152741 56 131 7.0 24.0 0.09 0.36 0.36 94 1016.1
20141127152244 56 106 8.0 23.0 0.08 0.35 0.36 94 1016.0
20141127151741 57 98 6.0 19.0 0.08 0.34 0.35 94 1015.9
20141127151241 57 124 7.0 24.0 0.09 0.33 0.33 94 1015.9
20141127150741 57 145 9.0 24.0 0.09 0.32 0.32 94 1015.5
20141127150241 57 135 9.0 24.0 0.07 0.32 0.32 94 1015.9
20141127145741 57 110 12.0 22.0 0.07 0.31 0.31 93 1015.8
20141127145241 57 89 8.0 22.0 0.07 0.30 0.30 93 1015.7
20141127144741 57 107 10.0 21.0 0.07 0.30 0.30 93 1015.7
20141127144241 57 119 8.0 21.0 0.06 0.29 0.29 94 1015.6
20141127143741 57 70 11.0 17.0 0.06 0.28 0.29 93 1015.6
20141127143241 57 217 9.0 14.0 0.06 0.28 0.28 93 1015.7
20141127142741 58 131 8.0 28.0 0.06 0.28 0.28 93 1015.7
20141127142242 58 162 9.0 28.0 0.05 0.27 0.27 93 1015.7
20141127141741 58 159 4.0 28.0 0.05 0.27 0.27 93 1015.7
20141127141241 59 121 11.0 21.0 0.02 0.26 0.26 93 1015.7
20141127140741 59 200 9.0 20.0 0.02 0.24 0.24 93 1015.7
20141127140241 59 147 9.0 16.0 0.02 0.23 0.23 93 1015.5
20141127135741 59 189 6.0 16.0 0.02 0.23 0.23 93 1015.4
20141127135242 59 109 7.0 10.0 0.03 0.22 0.22 93 1015.4
20141127134742 59 149 6.0 20.0 0.03 0.22 0.22 93 1015.3
20141127134242 59 151 3.0 20.0 0.07 0.22 0.22 93 1015.4
20141127133741 59 149 8.0 20.0 0.07 0.22 0.22 93 1015.3
20141127133241 59 134 6.0 15.0 0.08 0.22 0.22 93 1015.3
20141127132741 59 197 6.0 15.0 0.08 0.22 0.22 93 1015.4
20141127132241 59 154 6.0 15.0 0.09 0.21 0.21 93 1015.4
20141127131741 59 130 4.0 29.0 0.09 0.21 0.21 93 1015.4
20141127131241 59 152 9.0 29.0 0.10 0.21 0.21 93 1015.6
20141127130741 59 127 7.0 29.0 0.10 0.21 0.21 93 1015.6
20141127130241 59 158 5.0 14.0 0.10 0.21 0.21 92 1015.6
20141127125741 59 151 8.0 26.0 0.10 0.21 0.21 92 1015.6
20141127125243 59 149 7.0 26.0 0.08 0.21 0.21 92 1015.8
20141127124741 59 137 6.0 26.0 0.08 0.20 0.20 92 1015.8
20141127124241 59 155 10.0 25.0 0.05 0.18 0.18 92 1015.9
20141127123741 60 141 6.0 25.0 0.05 0.16 0.16 92 1015.8
20141127123241 60 169 10.0 25.0 0.03 0.13 0.14 92 1015.9
20141127122741 59 190 8.0 22.0 0.03 0.13 0.13 92 1015.9
20141127122241 60 127 11.0 22.0 0.02 0.13 0.13 92 1015.9
20141127121741 59 112 6.0 26.0 0.02 0.12 0.12 92 1015.8
20141127121241 60 137 13.0 26.0 0.01 0.12 0.12 92 1015.7
20141127120742 60 161 11.0 26.0 0.01 0.12 0.12 92 1015.7
20141127120241 59 162 11.0 21.0 0.01 0.11 0.11 92 1015.8
20141127115741 59 144 7.0 20.0 0.01 0.11 0.11 92 1015.9
20141127115241 59 135 8.0 20.0 0.02 0.11 0.11 92 1016.0
20141127114741 59 155 10.0 21.0 0.02 0.11 0.11 92 1015.9
20141127114241 59 152 12.0 21.0 0.02 0.11 0.11 92 1016.0
20141127113741 59 159 7.0 21.0 0.02 0.10 0.10 92 1016.0
20141127113241 59 106 9.0 20.0 0.02 0.10 0.10 92 1016.1
20141127112741 59 141 11.0 18.0 0.02 0.10 0.10 92 1016.1
20141127112241 59 140 6.0 18.0 0.03 0.10 0.10 92 1016.2
20141127111741 59 142 5.0 18.0 0.03 0.10 0.10 92 1016.2
20141127111241 58 156 2.0 27.0 0.03 0.10 0.10 92 1016.1
20141127110741 58 161 10.0 27.0 0.03 0.10 0.10 92 1016.1
20141127110241 58 137 6.0 27.0 0.03 0.10 0.10 92 1016.1
20141127105741 58 145 8.0 25.0 0.03 0.10 0.10 91 1016.4
20141127105241 58 154 13.0 25.0 0.03 0.10 0.10 91 1016.6
20141127104741 58 151 9.0 23.0 0.03 0.09 0.09 91 1016.5
20141127104241 58 100 8.0 23.0 0.02 0.09 0.09 91 1016.6
20141127103741 58 156 14.0 25.0 0.02 0.08 0.08 91 1016.6
20141127103241 59 128 11.0 25.0 0.03 0.08 0.08 91 1016.6
20141127102741 59 114 13.0 25.0 0.03 0.08 0.08 90 1016.7
20141127102241 59 200 8.0 25.0 0.03 0.07 0.08 90 1016.6
20141127101741 59 109 12.0 25.0 0.03 0.07 0.07 90 1016.6
20141127101241 60 117 11.0 29.0 0.05 0.07 0.07 90 1016.5
20141127100741 60 165 12.0 29.0 0.05 0.07 0.07 90 1016.4
20141127100242 60 169 12.0 29.0 0.06 0.07 0.07 90 1016.4
20141127095741 60 158 17.0 29.0 0.06 0.07 0.07 90 1016.4
20141127095243 59 177 12.0 28.0 0.06 0.07 0.07 90 1016.3
20141127094741 59 149 14.0 30.0 0.06 0.07 0.07 90 1016.3
20141127094241 59 155 13.0 30.0 0.06 0.06 0.06 90 1016.3